Location: Jastrz?bniki
(50.3667°N, 20.3833°E)
Time: 10:29:11
(UTC+00:00)

AQUA - Pass Details

Date: 05 August 2024
Orbit: 693 x 694 km, 98.3° (Epoch: 10 September)

Event Time Altitude Azimuth Distance (km) Brightness Sun altitude
Rises 01:22:26 0° 14° (NNE) 3,090 8.4 -14.3°
Reaches altitude 10° 01:24:42 10° 16° (NNE) 2,167 7.4 -14.1°
Maximum altitude 01:29:27 84° 104° (ESE) 706 3.8 -13.6°
Enters shadow 01:33:14 16° 193° (SSW) 1,777 5.4 -13.2°
